{"data":{"norad_id":66844,"intl_designator":"2025-280Z","name":"STARLINK-36073","alt_names":[],"object_type":"PAYLOAD","status":"ACTIVE","operator":null,"country":"US","launch_date":"2025-12-02","launch_site_code":"AFWTR","launch_vehicle":null,"mission":null,"orbit_class":"UNKNOWN","rcs_meters":null,"size_class":null,"mass_kg":null,"dimensions":null,"purposes":["comms"],"wikipedia_slug":null,"has_3d_model":false,"image_url":null,"decayed_at":null,"tle_current":{"epoch":"2026-09-20T05:16:28.024320Z","epoch_age_seconds":108692,"freshness":"FRESH","line1":"1 66844U 25280Z   26263.21976880  .00001080  00000+0  98282-4 0  9996","line2":"2 66844  70.0003 204.0128 0003224 263.3767  96.7025 14.98328365 45188","mean_motion":14.98328365,"eccentricity":0.0003224,"inclination_deg":70.0003,"raan_deg":204.0128,"arg_perigee_deg":263.3767,"mean_anomaly_deg":96.7025,"bstar":9.8282e-5,"rev_number":4518,"period_min":96.107103999196,"perigee_km":569.82020323351,"apogee_km":574.30169086977,"semimajor_km":6950.1979470516,"source":"CELESTRAK","updated_at":"2026-09-21T09:00:36.024505Z"}}}